Weather in Masheve

Ukraine / Chernihiv Region     52°05′19″N   32°48′04″E
temp.,
°C
wind,
m/s
gust,
m/s
humid.,
%
clouds,
%
prec.,
mm/h
press.,
hPa
HPBL,
m
20 september, mon
mon2000:00+11e4897100 2.6 1005329
03:00+10ssw2497100 4.3 1005361
06:00+8sw3696100 4.8 1005323
09:00+8ssw3695100 6.5 1006420
12:00+8ssw4792100 0.2 1006509
15:00+8s4794100 0.6 1007495
18:00+8s3697100 1.3 1007443
21:00+8w5897100 1.6 1008492
21 september, tue
tue2100:00+6wsw5897100 0.6 1009474
03:00+6wsw5996100 1.4 1010523
06:00+5wsw5996100 1.1 1010470
09:00+5wsw5896100 1.9 1010462
12:00+5sw5896100 1.1 1011425
15:00+6sw4798100 2.1 1010384
18:00+7wnw4897100 1.1 1011432
21:00+7wnw4897100 2.2 1012488
22 september, wed
wed2200:00+5wnw5996100 0.4 1012528
03:00+5wnw5997100 0.8 1012540
06:00+4wnw5896100 0.1 1012478
09:00+4nw4796100 0.4 1012418
12:00+5nw4494100 0.3 1013440
15:00+7wnw3486100 0.4 1013522
18:00+6wnw3693100 0.3 1013362
21:00+6wsw3697100 2.4 1013339
23 september, thu
thu2300:00+7nw369798 0.6 1013362
03:00+6nw3698100 0.8 1013305
06:00+6wnw3598100 0.4 1013286
09:00+6wnw359699 0.7 1013349
12:00+9wnw448095 0.3 1013853
15:00+7w3586100 0.6 1013553
18:00+7wsw368881 0.1 1012460
21:00+6wsw388889 0.1 1012632
24 september, fri
fri2400:00+6ssw4891100 0.0 1011461
03:00+5s599313 0.1 1009361
06:00+4s6149389 0.0 1008399
09:00+6s81686100 0.0 1004598
12:00+7s81596100 4.1 1002785
15:00+8ssw81596100 9.9 999871
18:00+9wsw7139466 2.1 1000758
21:00+9wsw71395100 3.3 1001720